User: anonymous
Location: Ladysmith
(45.4630°N, 91.1040°W)
Time: 04:28:46
(UTC-05:00)
Language:

SO-67 - Orbit

View from above orbital plane
View from above orbital plane
View from above satellite
View from above satellite

Ground track
Ground track

The orbit data is extracted from the following two-line orbital elements,

1 35870U 09049F   14258.10574944  .00011523  00000-0  34979-3 0  5060
2 35870 097.1556 276.5804 0003771 109.9616 323.4510 15.34235086277832
Epoch (UTC): 15 September 2014 02:32:16
Eccentricity: 0.0003771
inclination: 97.1556°
perigee height: 460 km
apogee height: 466 km
right ascension of ascending node: 276.5804°
argument of perigee: 109.9616°
revolutions per day: 15.34235086
mean anomaly at epoch: 323.4510°
orbit number at epoch: 27783

The dashed part of the orbit path shows where the satellite is in the earth's shadow,  

DLR